Weather History for Boscobel, WI

Change the Weather History Date:

Saturday, March 8, 2014

  Actual Average (KPDC) Record (KPDC)
Temperature  
Mean Temperature 26 °F -  
Max Temperature 35 °F 42 °F 72 °F (1987)
Min Temperature 15 °F 21 °F -7 °F (2008)
Degree Days  
Heating Degree Days 38    
Moisture  
Dew Point 18 °F    
Average Humidity 63    
Maximum Humidity 84    
Minimum Humidity 44    
Precipitation  
Precipitation 0.00 in - - ()
Sea Level Pressure  
Sea Level Pressure 30.23 in    
Wind  
Wind Speed 6 mph (North)    
Max Wind Speed 12 mph    
Max Gust Speed 18 mph    
Visibility 9 miles    
Events      
Averages and records for this station are not official NWS values.
T = Trace of Precipitation, MM = Missing Value Source: NWS Daily Summary

Daily Weather History Graph

Daily Weather History Graph

Search for Another Location

Airport:

Trip Planner

Search our weather history database for the weather conditions in past years. The results will help you decide how hot, cold, wet, or windy it might be!

Date:

Astronomy

Mar. 08, 2014 Rise Set
Actual Time 6:26 AM CST 6:00 PM CST
Civil Twilight 5:58 AM CST 6:29 PM CST
Nautical Twilight 5:25 AM CST 7:01 PM CST
Astronomical Twilight 4:52 AM CST 7:35 PM CST
Moon 10:58 AM CST (3/8) 1:08 AM CST (3/8)
Length of Visible Light 12h 30m
Length of Day
11h 33m
First Quarter, 52% of the Moon is Illuminated
Mar 8
First Quarter
Mar 16
Full
Mar 23
Last Quarter
Mar 30
New
Apr 7
First Quarter

Hourly Weather History & Observations

Time (CST) Temp. Windchill Dew Point Humidity Pressure Visibility Wind Dir Wind Speed Gust Speed Precip Events Conditions
12:53 AM 35.1 °F 30.1 °F 28.0 °F 76% 30.09 in 6.0 mi North 5.8 mph - N/A   Haze
1:53 AM 35.1 °F 28.6 °F 26.1 °F 70% 30.11 in 7.0 mi NNE 8.1 mph - N/A   Overcast
2:53 AM 34.0 °F 27.2 °F 23.0 °F 64% 30.12 in 10.0 mi NNE 8.1 mph - N/A   Overcast
3:11 AM 34.0 °F 26.0 °F 21.9 °F 61% 30.10 in 10.0 mi NNE 10.4 mph 18.4 mph N/A   Overcast
3:31 AM 34.0 °F 29.8 °F 23.0 °F 64% 30.11 in 10.0 mi NNE 4.6 mph - N/A   Overcast
3:53 AM 34.0 °F 28.8 °F 21.9 °F 61% 30.14 in 10.0 mi NNE 5.8 mph - N/A   Overcast
4:00 AM 34.0 °F 26.6 °F 21.9 °F 61% 30.12 in 10.0 mi NNE 9.2 mph - N/A   Overcast
4:53 AM 33.1 °F 26.9 °F 21.9 °F 64% 30.15 in 10.0 mi NNE 6.9 mph - N/A   Overcast
5:53 AM 33.1 °F 30.0 °F 21.9 °F 64% 30.19 in 10.0 mi NE 3.5 mph - N/A   Overcast
6:24 AM 33.1 °F 27.7 °F 21.9 °F 64% 30.18 in 10.0 mi NE 5.8 mph - N/A   Overcast
6:53 AM 32.0 °F 24.8 °F 21.9 °F 66% 30.22 in 10.0 mi NNE 8.1 mph - N/A   Overcast
7:53 AM 30.0 °F 21.7 °F 21.0 °F 69% 30.25 in 10.0 mi North 9.2 mph - N/A   Overcast
8:53 AM 28.9 °F 21.1 °F 19.9 °F 69% 30.27 in 8.0 mi NNE 8.1 mph - N/A   Overcast
9:53 AM 28.9 °F 22.8 °F 19.9 °F 69% 30.28 in 9.0 mi North 5.8 mph - 0.00 in   Overcast
10:00 AM 28.9 °F 22.8 °F 19.9 °F 69% 30.25 in 10.0 mi NNE 5.8 mph - N/A   Overcast
10:44 AM 30.0 °F 23.2 °F 19.0 °F 64% 30.26 in 10.0 mi North 6.9 mph - N/A   Overcast
10:53 AM 30.9 °F 25.2 °F 18.0 °F 59% 30.29 in 10.0 mi NNE 5.8 mph - N/A   Overcast
11:53 AM 32.0 °F 25.6 °F 17.1 °F 54% 30.29 in 10.0 mi NW 6.9 mph - N/A   Overcast
12:53 PM 34.0 °F 25.5 °F 16.0 °F 48% 30.27 in 10.0 mi NNW 11.5 mph - N/A   Partly Cloudy
1:53 PM 33.1 °F 27.7 °F 15.1 °F 48% 30.25 in 10.0 mi WNW 5.8 mph - N/A   Clear
2:53 PM 35.1 °F 30.1 °F 15.1 °F 44% 30.25 in 10.0 mi NNW 5.8 mph - N/A   Clear
3:53 PM 34.0 °F 26.6 °F 15.1 °F 46% 30.25 in 10.0 mi West 9.2 mph - N/A   Clear
4:53 PM 33.1 °F 25.5 °F 14.0 °F 46% 30.26 in 10.0 mi WNW 9.2 mph - N/A   Clear
5:53 PM 30.9 °F 24.3 °F 12.9 °F 47% 30.27 in 10.0 mi WNW 6.9 mph - N/A   Clear
6:53 PM 27.0 °F - 12.0 °F 53% 30.28 in 10.0 mi Calm Calm - N/A   Clear
7:04 PM 26.1 °F - 15.1 °F 63% 30.25 in 1.5 mi Calm Calm - N/A   Haze
7:27 PM 23.0 °F - 14.0 °F 68% 30.25 in 4.0 mi Calm Calm - N/A   Haze
7:53 PM 25.0 °F - 12.9 °F 60% 30.28 in 10.0 mi Calm Calm - N/A   Clear
8:53 PM 21.9 °F 15.7 °F 14.0 °F 72% 30.30 in 10.0 mi SSW 4.6 mph - N/A   Clear
9:53 PM 19.0 °F 13.9 °F 12.9 °F 77% 30.30 in 10.0 mi SSW 3.5 mph - N/A   Clear
10:53 PM 18.0 °F 9.8 °F 12.9 °F 81% 30.30 in 10.0 mi SSW 5.8 mph - N/A   Clear
11:53 PM 15.1 °F 9.4 °F 10.9 °F 84% 30.29 in 10.0 mi WSW 3.5 mph - N/A   Clear